Location: Rowland
(34.5359°N, 79.2929°W)
Time: 18:27:07
(UTC+00:00)

Transit 2A - Pass Details

Date: 09 October 2022
Orbit: 598 x 959 km, 66.7° (Epoch: 02 December)

Event Time Altitude Azimuth Distance (km) Brightness Sun altitude
Rises 03:51:30 0° 258° (WSW) 2,893 - -57.1°
Reaches altitude 10° 03:55:47 10° 298° (WNW) 1,949 - -57.6°
Maximum altitude 03:56:43 11° 311° (NW) 1,905 - -57.7°
Drops below altitude 10° 03:57:40 10° 323° (NW) 1,942 - -57.8°
Sets 04:01:54 0° 4° (N) 2,850 - -58.2°
